Weather History for Wiscasset, ME

Change the Weather History Date:

Monday, December 31, 2012

  Actual Average Record
Temperature  
Mean Temperature 24 °F -  
Max Temperature 32 °F 31 °F 46 °F (2010)
Min Temperature 15 °F 14 °F -11 °F (1998)
Degree Days  
Heating Degree Days 42    
Moisture  
Dew Point 11 °F    
Average Humidity 64    
Maximum Humidity 89    
Minimum Humidity 47    
Precipitation  
Precipitation 0.00 in - - ()
Sea Level Pressure  
Sea Level Pressure 29.83 in    
Wind  
Wind Speed 6 mph (WNW)    
Max Wind Speed 14 mph    
Max Gust Speed 29 mph    
Visibility 10 miles    
Events      
Averages and records for this station are not official NWS values.
T = Trace of Precipitation, MM = Missing Value Source: NWS Daily Summary

Daily Weather History Graph

Daily Weather History Graph

Search for Another Location

Airport:

Trip Planner

Search our weather history database for the weather conditions in past years. The results will help you decide how hot, cold, wet, or windy it might be!

Date:

Astronomy

Dec. 31, 2012 Rise Set
Actual Time 7:13 AM EST 4:10 PM EST
Civil Twilight 6:40 AM EST 4:43 PM EST
Nautical Twilight 6:04 AM EST 5:20 PM EST
Astronomical Twilight 5:29 AM EST 5:55 PM EST
Moon 7:45 PM EST (12/31) 8:46 AM EST (12/31)
Length of Visible Light 10h 03m
Length of Day
8h 57m
Waning Gibbous, 90% of the Moon is Illuminated
Dec 31
Waning Gibbous
Jan 4
Last Quarter
Jan 11
New
Jan 18
First Quarter
Jan 26
Full

Hourly Weather History & Observations

Time (EST) Temp. Windchill Dew Point Humidity Pressure Visibility Wind Dir Wind Speed Gust Speed Precip Events Conditions
12:53 AM 15.1 °F 3.3 °F 1.9 °F 56% 29.82 in 10.0 mi WNW 9.2 mph - N/A   Clear
1:53 AM 16.0 °F 2.9 °F 3.0 °F 57% 29.84 in 10.0 mi NW 11.5 mph 28.8 mph N/A   Clear
2:53 AM 15.1 °F 6.4 °F 3.0 °F 59% 29.85 in 10.0 mi Variable 5.8 mph - N/A   Clear
3:53 AM 18.0 °F 4.2 °F 3.0 °F 52% 29.84 in 10.0 mi WNW 13.8 mph 27.6 mph N/A   Clear
4:53 AM 19.0 °F 9.0 °F 3.9 °F 52% 29.84 in 10.0 mi NW 8.1 mph 19.6 mph N/A   Clear
5:53 AM 19.9 °F 9.3 °F 5.0 °F 52% 29.86 in 10.0 mi WNW 9.2 mph 23.0 mph N/A   Clear
6:53 AM 19.9 °F 11.1 °F 5.0 °F 52% 29.87 in 10.0 mi Variable 6.9 mph 21.9 mph N/A   Clear
7:53 AM 21.0 °F 13.4 °F 7.0 °F 55% 29.90 in 10.0 mi Variable 5.8 mph - N/A   Clear
8:53 AM 21.0 °F 16.2 °F 7.0 °F 55% 29.91 in 10.0 mi Variable 3.5 mph - N/A   Clear
9:53 AM 25.0 °F 20.7 °F 10.0 °F 53% 29.91 in 10.0 mi West 3.5 mph - N/A   Clear
10:53 AM 30.0 °F 21.7 °F 12.0 °F 47% 29.89 in 10.0 mi West 9.2 mph - N/A   Clear
11:53 AM 32.0 °F 26.4 °F 14.0 °F 48% 29.87 in 10.0 mi Variable 5.8 mph - N/A   Clear
12:53 PM 30.0 °F 25.2 °F 14.0 °F 51% 29.85 in 10.0 mi West 4.6 mph - N/A   Scattered Clouds
1:53 PM 32.0 °F 27.5 °F 15.1 °F 50% 29.83 in 10.0 mi WSW 4.6 mph - N/A   Mostly Cloudy
2:53 PM 32.0 °F 28.7 °F 16.0 °F 52% 29.83 in 10.0 mi Variable 3.5 mph - N/A   Partly Cloudy
3:53 PM 28.9 °F - 18.0 °F 64% 29.83 in 10.0 mi Calm Calm - N/A   Mostly Cloudy
4:53 PM 23.0 °F - 18.0 °F 81% 29.83 in 10.0 mi Calm Calm - N/A   Clear
5:53 PM 21.9 °F - 18.0 °F 85% 29.82 in 10.0 mi Calm Calm - N/A   Clear
6:53 PM 19.9 °F - 16.0 °F 85% 29.80 in 10.0 mi Calm Calm - N/A   Clear
7:53 PM 18.0 °F - 14.0 °F 84% 29.79 in 10.0 mi Calm Calm - N/A   Clear
8:53 PM 19.9 °F - 16.0 °F 85% 29.77 in 10.0 mi Calm Calm - N/A   Clear
9:53 PM 19.0 °F - 15.1 °F 85% 29.75 in 10.0 mi Calm Calm - N/A   Clear
10:53 PM 19.9 °F - 17.1 °F 89% 29.72 in 10.0 mi Calm Calm - N/A   Clear
11:53 PM 19.9 °F - 17.1 °F 89% 29.70 in 10.0 mi Calm Calm - N/A   Mostly Cloudy